Location: Newark
(45.8667°N, 9.7333°E)
Time: 03:51:39
(UTC+00:00)

Altair - All Passes

Search period start: 21 January 2020 00:00
Search period end: 31 January 2020 00:00
Orbit: 1502 x 1682 km, 47.2° (Epoch: 20 January)

Date Brightness Start Highest point End Pass type
(mag) Time Alt. Az. Time Alt. Az. Time Alt. Az.
21 Jan - 07:28:09 10° S 07:36:25 30° SE 07:44:45 10° ENE daylight
21 Jan - 09:30:05 10° SW 09:40:09 71° SSE 09:50:13 10° ENE daylight
21 Jan - 11:34:54 10° W 11:45:09 83° N 11:55:15 10° E daylight
21 Jan - 13:40:08 10° WNW 13:50:19 81° SSW 14:00:12 10° ESE daylight
21 Jan - 15:45:23 10° WNW 15:54:22 39° SW 16:03:04 10° SSE daylight
22 Jan - 07:03:24 10° S 07:11:21 28° SE 07:19:23 10° ENE daylight
22 Jan - 09:04:57 10° SW 09:14:57 68° SSE 09:25:00 10° ENE daylight
22 Jan - 11:09:39 10° W 11:19:54 84° N 11:30:02 10° E daylight
22 Jan - 13:14:54 10° WNW 13:25:07 84° SSW 13:35:03 10° ESE daylight
22 Jan - 15:20:06 10° WNW 15:29:16 42° SW 15:38:10 10° SSE daylight
22 Jan - 17:29:54 10° WSW 17:31:50 11° WSW 17:33:46 10° SW visible
23 Jan - 06:38:40 10° S 06:46:18 25° SE 06:53:59 10° E daylight
23 Jan - 08:39:51 10° SW 08:49:47 65° SSE 08:59:47 10° ENE daylight
23 Jan - 10:44:25 10° W 10:54:39 84° N 11:04:48 10° E daylight
23 Jan - 12:49:40 10° WNW 12:59:54 86° SSW 13:09:52 10° ESE daylight
23 Jan - 14:54:49 10° WNW 15:04:10 45° SW 15:13:14 10° SSE daylight
23 Jan - 17:03:15 10° W 17:06:51 12° WSW 17:10:25 10° SW visible
24 Jan - 06:14:01 10° S 06:21:14 23° SE 06:28:33 10° E visible
24 Jan - 08:14:46 10° SW 08:24:36 62° SSE 08:34:34 10° ENE daylight
24 Jan - 10:19:10 10° W 10:29:24 85° N 10:39:35 10° E daylight
24 Jan - 12:24:26 10° WNW 12:34:41 88° SSW 12:44:42 10° ESE daylight
24 Jan - 14:29:33 10° WNW 14:39:03 48° SW 14:48:16 10° SSE daylight
24 Jan - 16:37:13 10° W 16:41:52 14° WSW 16:46:27 10° SSW visible
25 Jan - 05:49:25 10° S 05:56:12 21° SE 06:03:05 10° E visible
25 Jan - 07:49:41 10° SW 07:59:27 59° SSE 08:09:20 10° ENE daylight
25 Jan - 09:53:56 10° W 10:04:10 87° N 10:14:22 10° E daylight
25 Jan - 11:59:12 10° WNW 12:09:27 90° E 12:19:30 10° ESE daylight
25 Jan - 14:04:17 10° WNW 14:13:56 51° SW 14:23:18 10° SE daylight
25 Jan - 16:11:24 10° W 16:16:52 16° WSW 16:22:15 10° SSW daylight
26 Jan - 05:24:53 10° SSE 05:31:10 19° SE 05:37:32 10° E visible
26 Jan - 07:24:39 10° SW 07:34:18 55° SE 07:44:06 10° ENE daylight
26 Jan - 09:28:44 10° WSW 09:38:55 88° NNW 09:49:08 10° E daylight
26 Jan - 11:33:57 10° W 11:44:13 88° NNE 11:54:18 10° ESE daylight
26 Jan - 13:39:02 10° WNW 13:48:48 55° SW 13:58:18 10° SE daylight
26 Jan - 15:45:45 10° W 15:51:51 18° SW 15:57:52 10° SSW daylight
27 Jan - 05:00:28 10° SSE 05:06:09 17° SE 05:11:53 10° E visible
27 Jan - 06:59:37 10° SW 07:09:09 52° SE 07:18:51 10° ENE daylight
27 Jan - 09:03:31 10° WSW 09:13:41 90° NNW 09:23:54 10° ENE daylight
27 Jan - 11:08:44 10° W 11:18:58 87° N 11:29:06 10° ESE daylight
27 Jan - 13:13:48 10° WNW 13:23:39 58° SW 13:33:16 10° SE daylight
27 Jan - 15:20:10 10° W 15:26:50 20° SW 15:33:23 10° S daylight
28 Jan - 04:36:11 10° SSE 04:41:09 15° ESE 04:46:08 10° E visible
28 Jan - 06:34:37 10° SSW 06:44:01 49° SE 06:53:36 10° ENE daylight
28 Jan - 08:38:18 10° WSW 08:48:27 89° SSE 08:58:41 10° ENE daylight
28 Jan - 10:43:29 10° W 10:53:44 86° N 11:03:53 10° E daylight
28 Jan - 12:48:34 10° WNW 12:58:30 61° SSW 13:08:13 10° SE daylight
28 Jan - 14:54:40 10° W 15:01:48 23° SW 15:08:50 10° S daylight
29 Jan - 04:12:07 10° SE 04:16:09 13° ESE 04:20:13 10° E visible
29 Jan - 06:09:39 10° SSW 06:18:54 46° SE 06:28:21 10° ENE visible
29 Jan - 08:13:07 10° WSW 08:23:14 86° SSE 08:33:27 10° ENE daylight
29 Jan - 10:18:15 10° W 10:28:29 85° N 10:38:39 10° E daylight
29 Jan - 12:23:20 10° WNW 12:33:20 64° SSW 12:43:09 10° SE daylight
29 Jan - 14:29:13 10° W 14:36:45 25° SW 14:44:11 10° S daylight
30 Jan - 03:48:28 10° SE 03:51:09 11° ESE 03:53:52 10° ESE visible
30 Jan - 05:44:42 10° SSW 05:53:47 43° SE 06:03:05 10° ENE visible
30 Jan - 07:47:55 10° WSW 07:58:00 84° SSE 08:08:14 10° ENE daylight
30 Jan - 09:53:00 10° W 10:03:15 84° N 10:13:26 10° E daylight
30 Jan - 11:58:06 10° WNW 12:08:10 67° SSW 12:18:02 10° SE daylight
30 Jan - 14:03:48 10° WNW 14:11:43 27° SW 14:19:30 10° S daylight
